CW9181 Weather Reports


time (UTC)temp
C
wind
direction
speed
KPH
gust
KPH
rain 1hr
cm
rain 24hr
cm
rain mn
cm
humidity
%
barometer
mb
20260510072045 18 130 6.4 12.9 0.00 0.00 0.00 71 1012.3
20260510071028 18 161 4.8 14.5 0.00 0.00 0.00 71 1012.2
20260510070033 18 154 4.8 9.7 0.00 0.00 0.00 71 1012.2
20260510065032 18 133 6.4 12.9 0.00 0.00 0.00 70 1012.2
20260510064025 18 172 3.2 12.9 0.00 0.00 0.00 70 1012.2
20260510063036 19 180 4.8 17.7 0.00 0.00 0.00 69 1012.2
20260510062031 19 146 9.7 16.1 0.00 0.00 0.00 69 1012.3
20260510061027 20 115 3.2 12.9 0.00 0.00 0.00 68 1012.1
20260510060025 20 188 6.4 12.9 0.00 0.00 0.00 68 1012.0
20260510055022 20 128 6.4 14.5 0.00 0.00 0.00 67 1012.0
20260510054022 20 113 6.4 12.9 0.00 0.00 0.00 67 1012.0
20260510053017 21 141 6.4 12.9 0.00 0.00 0.00 66 1012.1
20260510052032 21 169 6.4 9.7 0.00 0.00 0.00 65 1012.0
20260510051050 21 177 4.8 11.3 0.00 0.00 0.00 64 1011.9
20260510050041 21 155 4.8 14.5 0.00 0.00 0.00 62 1011.8
20260510045036 22 197 6.4 9.7 0.00 0.00 0.00 62 1011.8
20260510044034 22 147 6.4 11.3 0.00 0.00 0.00 62 1011.7
20260510043048 22 176 4.8 9.7 0.00 0.00 0.00 62 1011.7
20260510042026 23 165 4.8 9.7 0.00 0.00 0.00 62 1011.5
20260510041024 23 172 4.8 8.0 0.00 0.00 0.00 62 1011.3
20260510040031 23 186 3.2 9.7 0.00 0.00 0.00 60 1011.1
20260510035028 24 207 4.8 16.1 0.00 0.00 0.00 59 1011.1
20260510034024 25 182 3.2 12.9 0.00 0.00 0.00 59 1011.0
20260510033021 25 212 6.4 9.7 0.00 0.00 0.00 58 1010.8
20260510032021 25 172 3.2 9.7 0.00 0.00 0.00 57 1010.7
20260510031015 26 196 3.2 8.0 0.00 0.00 0.00 56 1010.7
20260510030033 26 180 1.6 9.7 0.00 0.00 0.00 54 1010.6
20260510025049 27 168 3.2 14.5 0.00 0.00 0.00 53 1010.5
20260510024037 27 223 3.2 12.9 0.00 0.00 0.00 51 1010.6
20260510023049 28 157 6.4 17.7 0.00 0.00 0.00 50 1010.4
20260510022022 28 200 4.8 16.1 0.00 0.00 0.00 48 1010.3
20260510021016 29 254 8.0 16.1 0.00 0.00 0.00 47 1010.3
20260510020052 30 209 6.4 19.3 0.00 0.00 0.00 46 1010.3
20260510015030 31 180 6.4 12.9 0.00 0.00 0.00 43 1010.4
20260510014028 31 265 4.8 14.5 0.00 0.00 0.00 34 1010.2
20260510013025 32 278 4.8 9.7 0.00 0.00 0.00 30 1010.1
20260510012047 32 254 4.8 9.7 0.00 0.00 0.00 31 1010.2
20260510011021 32 265 1.6 8.0 0.00 0.00 0.00 31 1010.3
20260510010045 32 335 3.2 8.0 0.00 0.00 0.00 31 1010.2
20260510005026 32 255 4.8 9.7 0.00 0.00 0.00 31 1010.3
20260510004036 32 265 3.2 6.4 0.00 0.00 0.00 32 1010.4
20260510003035 32 105 1.6 9.7 0.00 0.00 0.00 32 1010.4
20260510002033 32 270 4.8 9.7 0.00 0.00 0.00 33 1010.5
20260510001029 32 265 6.4 14.5 0.00 0.00 0.00 35 1010.6
20260510000029 32 303 1.6 9.7 0.00 0.00 0.00 35 1010.6
20260509235031 32 270 3.2 8.0 0.00 0.00 0.00 33 1010.7
20260509234027 32 230 4.8 8.0 0.00 0.00 0.00 35 1010.9
20260509233021 32 254 4.8 12.9 0.00 0.00 0.00 37 1011.0
20260509232019 32 332 4.8 9.7 0.00 0.00 0.00 35 1011.0
20260509231018 31 24 6.4 12.9 0.00 0.00 0.00 37 1011.0
20260509230036 31 298 4.8 14.5 0.00 0.00 0.00 35 1011.1
20260509225036 31 287 4.8 12.9 0.00 0.00 0.00 38 1011.3
20260509224018 31 6 4.8 8.0 0.00 0.00 0.00 39 1011.2
20260509223032 31 253 3.2 9.7 0.00 0.00 0.00 40 1011.4
20260509222035 30 265 11.3 17.7 0.00 0.00 0.00 41 1011.8
20260509221030 30 234 3.2 14.5 0.00 0.00 0.00 41 1011.9
20260509220025 30 277 3.2 12.9 0.00 0.00 0.00 43 1011.8
20260509215043 30 247 4.8 12.9 0.00 0.00 0.00 44 1012.1
20260509214040 30 256 1.6 14.5 0.00 0.00 0.00 46 1012.1
20260509213036 29 162 9.7 16.1 0.00 0.00 0.00 46 1012.3
20260509212056 28 4 4.8 12.9 0.00 0.00 0.00 47 1012.3
20260509211048 28 228 3.2 11.3 0.00 0.00 0.00 49 1012.4
20260509210047 28 167 6.4 12.9 0.00 0.00 0.00 49 1012.6
20260509205028 28 329 4.8 14.5 0.00 0.00 0.00 49 1012.6
20260509204023 28 235 3.2 8.0 0.00 0.00 0.00 49 1012.8
20260509203025 28 87 1.6 11.3 0.00 0.00 0.00 50 1012.7
20260509202022 27 246 6.4 12.9 0.00 0.00 0.00 50 1013.0
20260509201057 27 265 4.8 12.9 0.00 0.00 0.00 51 1013.0
20260509200036 27 114 3.2 11.3 0.00 0.00 0.00 54 1013.1
20260509195056 27 126 3.2 11.3 0.00 0.00 0.00 52 1013.1
20260509194028 27 93 8.0 11.3 0.00 0.00 0.00 53 1013.3
20260509193029 27 99 3.2 8.0 0.00 0.00 0.00 51 1013.4
20260509192029 26 189 3.2 11.3 0.00 0.00 0.00 53 1013.5
20260509191026 26 289 4.8 8.0 0.00 0.00 0.00 55 1013.7
20260509190023 26 178 4.8 11.3 0.00 0.00 0.00 54 1013.9
20260509185024 26 100 4.8 11.3 0.00 0.00 0.00 53 1014.0
20260509184019 25 180 4.8 11.3 0.00 0.00 0.00 55 1014.1
20260509183023 25 126 1.6 11.3 0.00 0.00 0.00 55 1014.2
20260509182022 25 80 4.8 11.3 0.00 0.00 0.00 56 1014.3
20260509181025 24 165 6.4 12.9 0.00 0.00 0.00 57 1014.5
20260509180022 24 178 1.6 11.3 0.00 0.00 0.00 59 1014.3
20260509175021 24 200 3.2 6.4 0.00 0.00 0.00 58 1014.4
20260509174017 23 228 3.2 11.3 0.00 0.00 0.00 59 1014.3
20260509173033 23 134 3.2 8.0 0.00 0.00 0.00 60 1014.3
20260509172032 22 137 4.8 9.7 0.00 0.00 0.00 60 1014.6
20260509171030 22 220 3.2 8.0 0.00 0.00 0.00 62 1014.6
20260509170046 22 176 3.2 9.7 0.00 0.00 0.00 63 1014.6
20260509165022 21 157 3.2 11.3 0.00 0.00 0.00 63 1014.5
20260509164019 21 165 3.2 9.7 0.00 0.00 0.00 64 1014.5
20260509163031 21 235 3.2 6.4 0.00 0.00 0.00 64 1014.5
20260509162029 20 227 1.6 6.4 0.00 0.00 0.00 67 1014.5
20260509161030 20 106 6.4 8.0 0.00 0.00 0.00 66 1014.6
20260509160030 20 165 3.2 11.3 0.00 0.00 0.00 67 1014.7
20260509155032 19 118 3.2 9.7 0.00 0.00 0.00 69 1014.6
20260509154028 18 173 4.8 9.7 0.00 0.00 0.00 71 1014.5
20260509153044 18 178 4.8 12.9 0.00 0.00 0.00 72 1014.5
20260509152026 17 103 3.2 11.3 0.00 0.00 0.00 73 1014.6
20260509151048 17 126 6.4 11.3 0.00 0.00 0.00 74 1014.5
20260509150025 16 139 6.4 12.9 0.00 0.00 0.00 75 1014.5
20260509145049 16 101 6.4 11.3 0.00 0.00 0.00 76 1014.6
20260509144033 16 158 6.4 9.7 0.00 0.00 0.00 78 1014.7
20260509143031 15 118 4.8 8.0 0.00 0.00 0.00 79 1014.7
20260509142034 15 149 6.4 14.5 0.00 0.00 0.00 82 1014.6
20260509141033 14 163 3.2 9.7 0.00 0.00 0.00 84 1014.5
20260509140033 13 127 4.8 9.7 0.00 0.00 0.00 85 1014.4
20260509135034 13 118 1.6 4.8 0.00 0.00 0.00 86 1014.3
20260509134034 13 111 0.0 6.4 0.00 0.00 0.00 86 1014.5
20260509133031 13 139 1.6 6.4 0.00 0.00 0.00 86 1014.4
20260509132035 13 105 1.6 4.8 0.00 0.00 0.00 86 1014.3
20260509131034 13 123 3.2 8.0 0.00 0.00 0.00 85 1014.2
20260509130033 13 104 1.6 4.8 0.00 0.00 0.00 85 1014.3
20260509125034 13 107 3.2 4.8 0.00 0.00 0.00 85 1014.2
20260509124019 13 115 1.6 4.8 0.00 0.00 0.00 84 1014.2
20260509123025 13 108 1.6 4.8 0.00 0.00 0.00 84 1014.1
20260509122024 13 140 3.2 4.8 0.00 0.00 0.00 84 1014.1
20260509121026 13 124 0.0 4.8 0.00 0.00 0.00 84 1014.1
20260509120046 13 155 3.2 4.8 0.00 0.00 0.00 84 1013.9
20260509115024 14 164 1.6 6.4 0.00 0.00 0.00 84 1013.9
20260509114027 14 174 1.6 4.8 0.00 0.00 0.00 84 1013.9
20260509113031 14 168 3.2 11.3 0.00 0.00 0.00 83 1013.8
20260509112031 14 172 3.2 9.7 0.00 0.00 0.00 84 1013.9
20260509111033 14 164 1.6 6.4 0.00 0.00 0.00 84 1013.9
20260509110035 14 155 4.8 8.0 0.00 0.00 0.00 84 1013.8
20260509105017 15 150 3.2 8.0 0.00 0.00 0.00 84 1013.8
20260509104056 15 132 4.8 9.7 0.00 0.00 0.00 84 1013.9
20260509103056 15 120 1.6 6.4 0.00 0.00 0.00 84 1013.9
20260509102018 15 142 0.0 6.4 0.00 0.00 0.00 84 1014.0
20260509101036 15 151 1.6 4.8 0.00 0.00 0.00 84 1014.0
20260509100018 15 137 1.6 6.4 0.00 0.00 0.00 84 1014.0
20260509095021 15 136 3.2 6.4 0.00 0.00 0.00 84 1014.0
20260509094040 15 145 3.2 6.4 0.00 0.00 0.00 83 1014.0
20260509093021 15 135 3.2 6.4 0.00 0.00 0.00 83 1014.1
20260509092025 15 161 1.6 4.8 0.00 0.00 0.00 82 1014.2
20260509091023 15 141 1.6 6.4 0.00 0.00 0.00 82 1014.1
20260509090024 16 163 3.2 8.0 0.00 0.00 0.00 82 1014.2
20260509085027 16 172 3.2 6.4 0.00 0.00 0.00 82 1014.2
20260509084025 16 157 3.2 8.0 0.00 0.00 0.00 82 1014.3
20260509083028 16 157 3.2 6.4 0.00 0.00 0.00 82 1014.2
20260509082030 16 149 3.2 8.0 0.00 0.00 0.00 82 1014.3
20260509081031 16 154 4.8 9.7 0.00 0.00 0.00 82 1014.4
20260509080034 17 122 4.8 8.0 0.00 0.00 0.00 82 1014.4
20260509075018 17 145 3.2 8.0 0.00 0.00 0.00 81 1014.4
20260509074022 17 132 1.6 8.0 0.00 0.00 0.00 81 1014.5
20260509073023 17 117 4.8 9.7 0.00 0.00 0.00 80 1014.5